Location: Shepherdstown, WV
(39.4326°N, 77.8042°W)
Time: 20:47:10
(UTC-04:00)

Vanguard 3 - Pass Details

Date: 03 August 2021
Orbit: 510 x 3260 km, 33.3° (Epoch: 22 September)

Event Time Altitude Azimuth Distance (km) Brightness Sun altitude
Rises 22:11:35 0° 276° (W) 6,349 12.6 -18.7°
Reaches altitude 10° 22:15:25 10° 273° (W) 5,597 12.1 -19.2°
Maximum altitude 22:33:27 63° 199° (SSW) 3,515 10.1 -21.7°
Enters shadow 22:45:20 29° 132° (SE) 4,560 10.3 -23.2°
